Regional Weather Roundup
Issued by NWS

Home | Current Version | Previous Version | Text Only | Print | Product List | Glossary On
Versions: 1 2 3 4 5 6 7 8 9 10 11 12 13 14 15 16 17 18 19 20 21 22 23 24 25 26 27 28 29 30 31 32 33 34 35 36 37 38 39 40 41 42 43 44 45 46 47 48 49 50
000
ASUS42 KTBW 261210
RWRFL
FLORIDA REGIONAL WEATHER ROUNDUP
NATIONAL WEATHER SERVICE TAMPA BAY RUSKIN FL
700 AM EST WED NOV 26 2014

NOTE: "FAIR" INDICATES FEW OR NO CLOUDS BELOW 12,000 FEET WITH NO
SIGNIFICANT WEATHER AND/OR OBSTRUCTIONS TO VISIBILITY.


FLZ001>010-012>015-112-114-115-261300-
PANHANDLE FLORIDA

CITY           SKY/WX    TMP DP  RH WIND       PRES   REMARKS
PENSACOLA      CLEAR     40  30  67 NW12      30.18R WCI  33
PENSACOLA NAS  CLEAR     41  31  67 NW6       30.19R WCI  37
MILTON NAS     CLEAR     39  29  67 NW8       30.18R WCI  33
CRESTVIEW      CLEAR     41  31  67 NW10      30.17R WCI  35
DUKE FIELD     FAIR      39  33  77 NW9       30.16R WCI  33
VALPARAISO     PTCLDY    41  32  70 NW12      30.16R WCI  34
MARY ESTHER    CLEAR     41  27  57 N13       30.15R WCI  34
TRI COUNTY     FAIR      41  37  86 CALM      30.13R
PANAMA CITY    FAIR      42  37  82 NW3       30.12R
TYNDALL AFB    CLEAR     46  38  72 N10       30.13R WCI  41
APALACHICOLA   CLOUDY    49  44  83 NW8       30.12R

STATION/POSITION SKY/WX   TEMP    WIND        PRES    WAVE   SWELL
                          AIR SEA DIR/SP/G            HT/PER HT/PER
                          (F)     (DEG/KT/KT) (MB)    (FT/S) (FT/S)
30.1N   87.6W              49 67  330/ 16/ 19 1022.0R   3/ 4
29.2N   88.2W              56 70  350/ 16/ 21 1023.4R   5/ 6
28.7N   86.0W              62 76  330/ 21/ 27 1019.9    5/ 6
PANAMA CITY BEAC           44 63  330/  7/ 10 1019.9R
CAPE SAN BLAS    NOT AVBL
TOWER C                    53     330/ 18/ 19 1019.4R
28.5N   84.5W              59 70  330/ 19/ 25 1019.0R   8/ 7

$$
FLZ011-016>038-118-127-128-134-139-239-261300-
NORTH FLORIDA

CITY           SKY/WX    TMP DP  RH WIND       PRES   REMARKS
MARIANNA       CLEAR     44  41  89 W7        30.11R WCI  40
TALLAHASSEE    CLOUDY    49  45  86 NW8       30.09R
PERRY          CLOUDY    48  47  96 NW6       30.09R
CROSS CITY       N/A     50  50 100 W9        30.08R
LAKE CITY      CLOUDY    46  46 100 NW5       30.03R WCI  44
GAINESVILLE    LGT RAIN  49  48  97 N5        30.03R
MAYPORT NAS    RAIN      50  49  96 VRB6      30.00R FOG
JACKSONVILLE   LGT RAIN  49  49 100 NW5       30.01R FOG
JAX NAS        RAIN      52  48  86 NW12      30.03R FOG
JAX CRAIG      LGT RAIN  50  48  93 NW16G22   30.01R WCI  44
JAX CECIL      RAIN      48  46  93 NW12G21   30.02R WCI  43
FERNANDINA BEA CLOUDY    54  52  94 NW12      29.98R
ST AUGUSTINE   RAIN      51  49  92 VRB7      30.02R FOG

STATION/POSITION SKY/WX   TEMP    WIND        PRES    WAVE   SWELL
                          AIR SEA DIR/SP/G            HT/PER HT/PER
                          (F)     (DEG/KT/KT) (MB)    (FT/S) (FT/S)
SHELL POINT                48     330/  7/  9   N/A
KEATON BEACH               49     330/  7/ 10 1019.2R
CEDAR KEY                  50     360/  6/  8 1017.8R
FERNANDINA                 50 63  320/ 12/ 14 1014.7R
30.7N   81.3W                 62                N/A     4/ 5
MAYPORT                    50 64  330/ 11/ 13   N/A
31.4N   80.9W              54 64  320/ 25/ 31 1013.8R   6/ 5   2/ 9
ST AUGUSTINE               50     310/ 10/ 11 1017.2R

$$
FLZ040-043>046-052-053-057-058-063-144-261300-
INTERIOR CENTRAL FLORIDA

CITY           SKY/WX    TMP DP  RH WIND       PRES   REMARKS
OCALA          LGT RAIN  50  46  87 N10       30.05R
THE VILLAGES     N/A     50  50 100 NW7       29.94R FOG
LEESBURG       LGT RAIN  52  50  93 N12       30.04S
SANFORD        LGT RAIN  54  51  90 NW22G36   30.02R
ORLANDO INTL   LGT RAIN  56  56 100 NW23G31   30.03R
KISSIMMEE      RAIN      55  55 100 NW20G35   30.02  FOG
WINTER HAVEN   LGT RAIN  55  53  93 NW14G23   30.04R
LAKELAND       LGT RAIN  54  52  94 N12       30.04R
BARTOW         CLOUDY    54  54 100 NW13G18   30.04R
OKEECHOBEE     RAIN      70  70 100 SW6       29.96R

$$
FLZ041-047-054-059-064-141-147-261300-
EAST CENTRAL FLORIDA

CITY           SKY/WX    TMP DP  RH WIND       PRES   REMARKS
ORMOND BEACH   LGT RAIN  54  50  87 NW20G25   30.01
DAYTONA BEACH  LGT RAIN  54  51  90 NW17G28   30.02R
DELAND         CLOUDY    52  50  93 NW18G24   30.05R
NEW SMYRNA BEA LGT RAIN  57  55  94 NW20G29   30.01  FOG
JFK SPACE CTR  LGT RAIN  72  70  94 W18       29.94R
TITUSVILLE     LGT RAIN  70  70 100 SW12      29.94
CAPE CANAVERAL DRIZZLE   71  70  95 SW10      29.93R
PATRICK AFB    LGT RAIN  72  71  99 SW16      29.93R
MELBOURNE      LGT RAIN  73  71  93 SW12      29.94R
VERO BEACH     CLOUDY    70  68  93 SW9       29.94S
FT PIERCE      CLOUDY    72  70  93 W7        29.94S
STUART         LGT RAIN  73  72  94 W12G17    29.97R FOG

STATION/POSITION SKY/WX   TEMP    WIND        PRES    WAVE   SWELL
                          AIR SEA DIR/SP/G            HT/PER HT/PER
                          (F)     (DEG/KT/KT) (MB)    (FT/S) (FT/S)
28.5N   80.2W              74 78  210/ 23/ 27 1012.4
28.9N   78.5W              79 78  190/ 21/ 25 1013.3R   9/ 7
TRIDENT PIER               71 71  200/  9/ 12 1012.9R
28.4N   80.5W                 70                N/A     3/ 4
27.6N   80.2W                 78                N/A     3/ 8

$$
FLZ050-056-061-142-242-148-248-149-249-151-251-155-255-
160-260-261300-
WEST CENTRAL FLORIDA

CITY           SKY/WX    TMP DP  RH WIND       PRES   REMARKS
CRYSTAL RIVER  DRIZZLE   50  48  93 N3        30.06R
INVERNESS      DRIZZLE   50  50 100 N8        30.05R
BROOKSVILLE    LGT RAIN  52  50  93 NW8       30.07R
ZEPHYRHILLS    CLOUDY    50  48  93 N9        30.06R
CLEARWATER     LGT RAIN  56  56 100 N14       30.06R
TAMPA INTL     CLOUDY    56  53  90 N12       30.05R
TAMPA EXEC     CLOUDY    55  54  94 N8        30.05R
PLANT CITY     CLOUDY    55 N/A N/A N9G16     30.06R
MACDILL AFB    CLOUDY    55  55 100 NE7       30.06R
PETER O KNIGHT CLOUDY    57  55  94 N5        30.06R
ST PETERSBURG  CLOUDY    58  55  90 N7        30.04R
SARASOTA       CLOUDY    58  55  90 N8        30.03R
VENICE         CLOUDY    59  55  88 N12       30.05R

STATION/POSITION SKY/WX   TEMP    WIND        PRES    WAVE   SWELL
                          AIR SEA DIR/SP/G            HT/PER HT/PER
                          (F)     (DEG/KT/KT) (MB)    (FT/S) (FT/S)
CEDAR KEY                  50     360/  6/  8 1017.8R
28.5N   84.5W              59 70  330/ 19/ 25 1019.0R   8/ 7
27.3N   84.3W                 78                N/A    11/ 9   2/11
CLEARWATER BEACH           57 66  340/ 26/ 28 1017.3R
MIDDLE TAMPA BAY           58      10/ 19/ 23 1017.7R
VENICE                     61 70  340/ 31/ 34 1016.1R

$$
FLZ066-069-070-075>078-162-262-165-265-261300-
SOUTHWEST FLORIDA AND KEYS

CITY           SKY/WX    TMP DP  RH WIND       PRES   REMARKS
PUNTA GORDA    LGT RAIN  60  57  89 N15       30.05R
FT MYERS       LGT RAIN  62  60  93 NW25G36   30.02R
SOUTHWEST INTL LGT RAIN  62  61  96 NW10G22   30.01R
NAPLES         LGT RAIN  64  50  61 NW21G31   30.01R
MARCO ISLAND   CLOUDY    66  64  94 NW16G28   29.99R
MARATHON       PTCLDY    79  79 100 S8        29.98R
KEY WEST NAS   CLOUDY    79  77  94 S14       29.99R
KEY WEST INTL  MOCLDY    80  76  87 SW9       30.00R

STATION/POSITION SKY/WX   TEMP    WIND        PRES    WAVE   SWELL
                          AIR SEA DIR/SP/G            HT/PER HT/PER
                          (F)     (DEG/KT/KT) (MB)    (FT/S) (FT/S)
VENICE                     61 70  340/ 31/ 34 1016.1R
NAPLES                            320/ 27/ 30 1016.2R
26.0N   85.6W              69 80  340/ 21/ 27 1018.7R   9/ 8   5/ 8
DRY TORTUGAS               73     340/ 31/ 35 1014.3R
NW FL BAY                  78     200/  9/ 11 1014.4R
SAND KEY                   79     200/ 16/ 19 1015.4R
SOMBRERO KEY               79     210/ 15/ 16 1015.2R
LONG KEY                   79 79  200/ 12/ 14 1015.5R
MOLASSES REEF              80 78  200/ 14/ 16 1014.7R

$$
FLZ067-068-071>074-168-172>174-261300-
SOUTHEAST FLORIDA

CITY           SKY/WX    TMP DP  RH WIND       PRES   REMARKS
W PALM BEACH   CLOUDY    79  75  87 SW10      29.95R
FT LAUDER-EXEC MOCLDY    78  75  90 S8        29.96R
FT LAUDERDALE  MOCLDY    79  75  87 S7        29.97R
POMPANO BEACH  MOCLDY    79  75  87 S7        29.97R
PEMBROKE PINES CLOUDY    79  75  87 S9        29.98R
OPA LOCKA      CLOUDY    79  75  87 S8        29.98R
MIAMI          CLOUDY    79  75  87 S8        29.98R
WEST KENDALL   CLOUDY    78  75  90 S7        29.98R
HOMESTEAD      MOCLDY    78  75  92 S7        29.98R

STATION/POSITION SKY/WX   TEMP    WIND        PRES    WAVE   SWELL
                          AIR SEA DIR/SP/G            HT/PER HT/PER
                          (F)     (DEG/KT/KT) (MB)    (FT/S) (FT/S)
PORT EVERGLADES            78     190/  5/  7 1014.7
VIRGINIA KEY               79 77  200/ 10/ 11 1015.6R
LAKE WORTH                 79 78  200/ 10/ 12 1014.1R
SETTLEMENT POINT           80     190/ 23/ 25 1015.6R

$$




USA.gov is the U.S. government's official web portal to all federal, state and local government web resources and services.